sat.trackr.live / text

‹ back to catalog

STARLINK-3640

NORAD 51988 · 2022-025AJ

PAYLOAD ACTIVE UNKNOWN

§ Identity

Operator
Country
US
Launch date
2022-03-09
Launch site
AFETR
Launch vehicle
Mass (kg)
RCS (m²)

Purposes: comms

External: N2YO · Heavens-Above · Gunter

§ Orbital elements

Epoch: 2026-09-19T15:30:50.082336Z

Period
94.01 min
Inclination
53.1580°
Eccentricity
0.0001179
Mean motion
15.31711219 rev/d
Perigee alt
469.9 km
Apogee alt
471.5 km
Semi-major
6,848.8 km
B*
6.5335e-4
RAAN
235.8388°
Arg perigee
88.1438°
Mean anomaly
271.9698°
Rev number
25,051

§ Raw data

STARLINK-36401 51988U 22025AJ  26262.64641299  .00019971  00000+0  65335-3 0  99922 51988  53.1580 235.8388 0001179  88.1438 271.9698 15.31711219250518

JSON: /api/v1/satellites/51988 · /tle

For live sub-satellite position, see the globe view (requires WebGL).

§ Visibility from observer

Set your observer location to see the next 7 days of passes ≥ 10°. The values pass through the URL so the page stays shareable.

No JS? Fill the form by hand. The geolocation button needs JavaScript.